Regional Weather Roundup
Issued by NWS

Home | Current Version | Previous Version | Graphics & Text | Print | Product List | Glossary On
Versions: 1 2 3 4 5 6 7 8 9 10 11 12 13 14 15 16 17 18 19 20 21 22 23 24 25 26 27 28 29 30 31 32 33 34 35 36 37 38 39 40 41 42 43 44 45 46 47 48 49 50
000
ASUS43 KFSD 211702
RWRSD

WEATHER ROUNDUP FOR SOUTH DAKOTA
NATIONAL WEATHER SERVICE SIOUX FALLS SD
1200 PM CDT FRI JUL 21 2017

NOTE: "FAIR" INDICATES FEW OR NO CLOUDS BELOW 12,000 FEET WITH NO
SIGNIFICANT WEATHER AND/OR OBSTRUCTIONS TO VISIBILITY.


SDZ001>005-009-010-012>017-211800-
NORTHWEST AND NORTH CENTRAL SOUTH DAKOTA

CITY           SKY/WX    TMP DP  RH WIND       PRES   REMARKS
BUFFALO          N/A     82  62  50 NW15      29.83R
FAITH            N/A     85  69  58 SW6       29.85S
MOBRIDGE       SUNNY     86  73  65 NW3       29.80S
$$

SDZ012>016-024>037-041>051-057-063-072>074-211800-
SOUTHWEST AND SOUTH CENTRAL SOUTH DAKOTA

CITY           SKY/WX    TMP DP  RH WIND       PRES   REMARKS
RAPID CTY ARPT MOSUNNY   86  58  38 NW14      29.91R
PIERRE         NOT AVBL
CUSTER         CLOUDY    82  49  31 VRB7      30.08R
ELLSWORTH AFB  SUNNY     85  61  43 N12       29.91R
PHILIP         SUNNY     88  69  53 SW10      29.84R
PINE RIDGE     SUNNY     87  62  43 W14G20    29.93R
SPEARFISH      FAIR      81  54  39 NW18      29.98R HAZE
WINNER         FAIR      91  72  53 CALM      29.83S HX  98
$$

SDZ004>011-016>023-039-040-211800-
NORTHEAST SOUTH DAKOTA

CITY           SKY/WX    TMP DP  RH WIND       PRES   REMARKS
ABERDEEN       CLOUDY    82  73  74 SW6       29.82R
WATERTOWN      CLOUDY    84  70  62 VRB5      29.82R
BROOKINGS      MOSUNNY   80  70  71 SE9       29.84R
SISSETON         N/A     83  74  74 VRB6      29.80S
$$

SDZ017-020-022-023-036>040-048>070-211800-
SOUTHEAST SOUTH DAKOTA

CITY           SKY/WX    TMP DP  RH WIND       PRES   REMARKS
SIOUX FALLS    CLOUDY    78  71  79 S12       29.81R
HURON          SUNNY     85  71  63 S10       29.81R
CHAMBERLAIN    SUNNY     88  73  61 S12       29.81S HX  96
MITCHELL       SUNNY     84  71  65 S13       29.80S
YANKTON        CLOUDY    82  71  69 SE13      29.79R
$$

ABBREVIATIONS USED IN REMARKS
   TC - TEMPERATURE IN CELSIUS
  WCI - WIND CHILL INDEX
   HX - HEAT INDEX
  VSB - VISIBILITY





USA.gov is the U.S. government's official web portal to all federal, state and local government web resources and services.